| time (UTC) | temp C | wind direction | speed KPH | gust KPH | rain 1hr cm | rain 24hr cm | rain mn cm | humidity % | barometer mb |
| 20260507171620 | 13 | 158 | 6.4 | 8.0 | 0.00 | 0.00 | 0.00 | 72 | 1014.9 |
| 20260507170620 | 13 | 180 | 6.4 | 11.3 | 0.00 | 0.00 | 0.00 | 73 | 1014.9 |
| 20260507165618 | 13 | 203 | 6.4 | 11.3 | 0.00 | 0.00 | 0.00 | 72 | 1014.9 |
| 20260507164620 | 13 | 180 | 6.4 | 9.7 | 0.00 | 0.00 | 0.00 | 72 | 1015.0 |
| 20260507163620 | 13 | 180 | 6.4 | 12.9 | 0.00 | 0.00 | 0.00 | 71 | 1014.9 |
| 20260507162620 | 14 | 158 | 8.0 | 9.7 | 0.00 | 0.00 | 0.00 | 71 | 1014.9 |
| 20260507161620 | 14 | 180 | 6.4 | 11.3 | 0.00 | 0.00 | 0.00 | 71 | 1014.9 |
| 20260507160620 | 14 | 180 | 6.4 | 9.7 | 0.00 | 0.00 | 0.00 | 70 | 1014.9 |
| 20260507155620 | 14 | 180 | 6.4 | 9.7 | 0.00 | 0.00 | 0.00 | 70 | 1014.9 |
| 20260507154640 | 14 | 180 | 9.7 | 12.9 | 0.00 | 0.00 | 0.00 | 69 | 1014.9 |
| 20260507153620 | 13 | 180 | 4.8 | 8.0 | 0.00 | 0.00 | 0.00 | 70 | 1014.9 |
| 20260507152620 | 13 | 203 | 6.4 | 8.0 | 0.00 | 0.00 | 0.00 | 70 | 1014.8 |
| 20260507151620 | 13 | 158 | 4.8 | 9.7 | 0.00 | 0.00 | 0.00 | 71 | 1014.9 |
| 20260507150640 | 14 | 180 | 6.4 | 8.0 | 0.00 | 0.00 | 0.00 | 70 | 1015.0 |
| 20260507145620 | 14 | 180 | 4.8 | 9.7 | 0.00 | 0.00 | 0.00 | 69 | 1015.0 |
| 20260507144620 | 14 | 180 | 6.4 | 9.7 | 0.00 | 0.00 | 0.00 | 67 | 1015.1 |
| 20260507143619 | 13 | 158 | 6.4 | 9.7 | 0.00 | 0.00 | 0.00 | 68 | 1015.1 |
| 20260507142619 | 13 | 180 | 6.4 | 8.0 | 0.00 | 0.00 | 0.00 | 71 | 1015.2 |
| 20260507141619 | 13 | 180 | 8.0 | 9.7 | 0.00 | 0.00 | 0.00 | 71 | 1015.3 |
| 20260507140619 | 13 | 180 | 6.4 | 9.7 | 0.00 | 0.00 | 0.00 | 70 | 1015.3 |
| 20260507135620 | 13 | 180 | 6.4 | 8.0 | 0.00 | 0.00 | 0.00 | 70 | 1015.3 |
| 20260507134619 | 13 | 135 | 6.4 | 8.0 | 0.00 | 0.00 | 0.00 | 69 | 1015.3 |
| 20260507133619 | 14 | 135 | 4.8 | 6.4 | 0.00 | 0.00 | 0.00 | 67 | 1015.3 |
| 20260507132619 | 14 | 135 | 8.0 | 11.3 | 0.00 | 0.00 | 0.00 | 69 | 1015.3 |
| 20260507131619 | 13 | 135 | 3.2 | 6.4 | 0.00 | 0.00 | 0.00 | 71 | 1015.4 |
| 20260507130619 | 13 | 158 | 3.2 | 6.4 | 0.00 | 0.00 | 0.00 | 70 | 1015.5 |
| 20260507125619 | 13 | 158 | 4.8 | 6.4 | 0.00 | 0.00 | 0.00 | 68 | 1015.5 |
| 20260507124620 | 13 | 180 | 6.4 | 9.7 | 0.00 | 0.00 | 0.00 | 68 | 1015.6 |
| 20260507123640 | 13 | 180 | 4.8 | 8.0 | 0.00 | 0.00 | 0.00 | 68 | 1015.5 |
| 20260507122620 | 13 | 180 | 6.4 | 9.7 | 0.00 | 0.00 | 0.00 | 68 | 1015.5 |
| 20260507121619 | 13 | 180 | 6.4 | 9.7 | 0.00 | 0.00 | 0.00 | 66 | 1015.5 |
| 20260507120620 | 14 | 158 | 4.8 | 9.7 | 0.00 | 0.00 | 0.00 | 64 | 1015.6 |
| 20260507115619 | 14 | 203 | 8.0 | 14.5 | 0.00 | 0.00 | 0.00 | 62 | 1015.7 |
| 20260507114639 | 14 | 180 | 4.8 | 8.0 | 0.00 | 0.00 | 0.00 | 62 | 1015.7 |
| 20260507113619 | 14 | 180 | 6.4 | 8.0 | 0.00 | 0.00 | 0.00 | 61 | 1015.7 |
| 20260507112619 | 15 | 225 | 3.2 | 4.8 | 0.00 | 0.00 | 0.00 | 61 | 1015.7 |
| 20260507111619 | 15 | 135 | 4.8 | 11.3 | 0.00 | 0.00 | 0.00 | 62 | 1015.7 |
| 20260507110619 | 15 | 158 | 8.0 | 16.1 | 0.00 | 0.00 | 0.00 | 63 | 1016.0 |
| 20260507105619 | 15 | 158 | 6.4 | 11.3 | 0.00 | 0.00 | 0.00 | 71 | 1016.1 |
| 20260507104659 | 13 | 135 | 3.2 | 6.4 | 0.00 | 0.00 | 0.00 | 71 | 1016.2 |
| 20260507103619 | 14 | 135 | 4.8 | 8.0 | 0.00 | 0.00 | 0.00 | 70 | 1016.3 |
| 20260507102619 | 13 | 113 | 4.8 | 8.0 | 0.00 | 0.00 | 0.00 | 76 | 1016.3 |
| 20260507101619 | 12 | 90 | 1.6 | 4.8 | 0.00 | 0.00 | 0.00 | 77 | 1016.3 |
| 20260507100619 | 12 | 135 | 6.4 | 12.9 | 0.00 | 0.00 | 0.00 | 79 | 1016.4 |
| 20260507095619 | 11 | 158 | 6.4 | 8.0 | 0.00 | 0.00 | 0.00 | 82 | 1016.4 |
| 20260507094619 | 10 | 68 | 3.2 | 4.8 | 0.00 | 0.00 | 0.00 | 84 | 1016.4 |
| 20260507093619 | 10 | 45 | 4.8 | 9.7 | 0.00 | 0.00 | 0.00 | 85 | 1016.3 |
| 20260507092619 | 9 | 0.0 | 1.6 | 0.00 | 0.00 | 0.00 | 85 | 1016.3 | |
| 20260507091639 | 9 | 113 | 1.6 | 4.8 | 0.00 | 0.00 | 0.00 | 85 | 1016.4 |
| 20260507090619 | 9 | 135 | 1.6 | 6.4 | 0.00 | 0.00 | 0.00 | 86 | 1016.3 |
| 20260507085619 | 8 | 113 | 1.6 | 3.2 | 0.00 | 0.00 | 0.00 | 86 | 1016.3 |
| 20260507084619 | 8 | 90 | 3.2 | 4.8 | 0.00 | 0.00 | 0.00 | 87 | 1016.5 |
| 20260507083619 | 8 | 0.0 | 3.2 | 0.00 | 0.00 | 0.00 | 87 | 1016.4 | |
| 20260507082619 | 8 | 0.0 | 0.0 | 0.00 | 0.00 | 0.00 | 88 | 1016.5 | |
| 20260507081619 | 8 | 0.0 | 0.0 | 0.00 | 0.00 | 0.00 | 89 | 1016.5 | |
| 20260507080619 | 7 | 0.0 | 0.0 | 0.00 | 0.00 | 0.00 | 89 | 1016.5 | |
| 20260507075619 | 7 | 0.0 | 0.0 | 0.00 | 0.00 | 0.00 | 89 | 1016.4 | |
| 20260507074619 | 7 | 0.0 | 1.6 | 0.00 | 0.00 | 0.00 | 90 | 1016.4 | |
| 20260507073619 | 7 | 0.0 | 0.0 | 0.00 | 0.00 | 0.00 | 90 | 1016.4 | |
| 20260507072619 | 7 | 0.0 | 0.0 | 0.00 | 0.00 | 0.00 | 91 | 1016.5 | |
| 20260507071619 | 7 | 0.0 | 0.0 | 0.00 | 0.00 | 0.00 | 91 | 1016.3 | |
| 20260507070619 | 7 | 0.0 | 0.0 | 0.00 | 0.00 | 0.00 | 91 | 1016.2 | |
| 20260507065619 | 7 | 0.0 | 0.0 | 0.00 | 0.00 | 0.00 | 91 | 1016.0 | |
| 20260507064619 | 7 | 0.0 | 0.0 | 0.00 | 0.00 | 0.00 | 91 | 1016.2 | |
| 20260507063619 | 6 | 0.0 | 1.6 | 0.00 | 0.00 | 0.00 | 92 | 1016.1 | |
| 20260507062619 | 6 | 68 | 1.6 | 3.2 | 0.00 | 0.00 | 0.00 | 92 | 1016.1 |
| 20260507061619 | 6 | 0.0 | 1.6 | 0.00 | 0.00 | 0.00 | 92 | 1016.2 | |
| 20260507060639 | 6 | 113 | 1.6 | 3.2 | 0.00 | 0.00 | 0.00 | 92 | 1016.0 |
| 20260507055619 | 6 | 135 | 1.6 | 3.2 | 0.00 | 0.00 | 0.00 | 91 | 1016.1 |
| 20260507054619 | 6 | 113 | 1.6 | 3.2 | 0.00 | 0.00 | 0.00 | 91 | 1016.0 |
| 20260507053639 | 6 | 68 | 1.6 | 3.2 | 0.00 | 0.00 | 0.00 | 91 | 1016.0 |
| 20260507052619 | 6 | 0.0 | 0.0 | 0.00 | 0.00 | 0.00 | 91 | 1016.0 | |
| 20260507051639 | 6 | 0.0 | 0.0 | 0.00 | 0.00 | 0.00 | 91 | 1015.9 | |
| 20260507050619 | 6 | 0.0 | 0.0 | 0.00 | 0.00 | 0.00 | 91 | 1016.0 | |
| 20260507045639 | 6 | 68 | 1.6 | 3.2 | 0.00 | 0.00 | 0.00 | 91 | 1015.8 |
| 20260507044619 | 6 | 45 | 1.6 | 3.2 | 0.00 | 0.00 | 0.00 | 91 | 1015.7 |
| 20260507043618 | 6 | 0.0 | 1.6 | 0.00 | 0.00 | 0.00 | 91 | 1015.7 | |
| 20260507042619 | 6 | 0.0 | 0.0 | 0.00 | 0.00 | 0.00 | 90 | 1015.6 | |
| 20260507041619 | 6 | 90 | 3.2 | 4.8 | 0.00 | 0.00 | 0.00 | 90 | 1015.6 |
| 20260507040618 | 6 | 68 | 1.6 | 3.2 | 0.00 | 0.00 | 0.00 | 90 | 1015.6 |
| 20260507035619 | 6 | 0.0 | 0.0 | 0.00 | 0.00 | 0.00 | 90 | 1015.6 | |
| 20260507034619 | 6 | 90 | 1.6 | 3.2 | 0.00 | 0.00 | 0.00 | 90 | 1015.7 |
| 20260507033618 | 6 | 0.0 | 0.0 | 0.00 | 0.00 | 0.00 | 90 | 1015.7 | |
| 20260507032638 | 6 | 0.0 | 1.6 | 0.00 | 0.00 | 0.00 | 90 | 1015.6 | |
| 20260507031618 | 6 | 68 | 1.6 | 3.2 | 0.00 | 0.00 | 0.00 | 90 | 1015.8 |
| 20260507030618 | 6 | 68 | 1.6 | 3.2 | 0.00 | 0.00 | 0.00 | 89 | 1015.8 |
| 20260507025619 | 6 | 0.0 | 0.0 | 0.00 | 0.00 | 0.00 | 89 | 1015.9 | |
| 20260507024618 | 6 | 45 | 3.2 | 6.4 | 0.00 | 0.00 | 0.00 | 89 | 1015.8 |
| 20260507023618 | 6 | 0.0 | 0.0 | 0.00 | 0.00 | 0.00 | 89 | 1015.8 | |
| 20260507022618 | 7 | 90 | 1.6 | 3.2 | 0.00 | 0.00 | 0.00 | 89 | 1015.8 |
| 20260507021618 | 7 | 90 | 1.6 | 4.8 | 0.00 | 0.00 | 0.00 | 88 | 1015.9 |
| 20260507020618 | 7 | 68 | 3.2 | 4.8 | 0.00 | 0.00 | 0.00 | 88 | 1015.9 |
| 20260507015618 | 7 | 0.0 | 1.6 | 0.00 | 0.00 | 0.00 | 88 | 1015.8 | |
| 20260507014618 | 7 | 45 | 1.6 | 3.2 | 0.00 | 0.00 | 0.00 | 88 | 1015.8 |
| 20260507013618 | 7 | 45 | 1.6 | 3.2 | 0.00 | 0.00 | 0.00 | 88 | 1015.9 |
| 20260507012618 | 7 | 45 | 3.2 | 6.4 | 0.00 | 0.00 | 0.00 | 88 | 1015.8 |
| 20260507011618 | 7 | 45 | 1.6 | 4.8 | 0.00 | 0.00 | 0.00 | 87 | 1015.9 |
| 20260507010618 | 7 | 0.0 | 3.2 | 0.00 | 0.00 | 0.00 | 87 | 1015.9 | |
| 20260507005619 | 7 | 0.0 | 1.6 | 0.00 | 0.00 | 0.00 | 87 | 1015.9 | |
| 20260507004618 | 7 | 0.0 | 0.0 | 0.00 | 0.00 | 0.00 | 87 | 1015.8 | |
| 20260507003618 | 7 | 0.0 | 0.0 | 0.00 | 0.00 | 0.00 | 86 | 1015.9 | |
| 20260507002638 | 7 | 68 | 1.6 | 3.2 | 0.00 | 0.00 | 0.00 | 86 | 1015.9 |
| 20260507001620 | 7 | 45 | 3.2 | 6.4 | 0.00 | 0.00 | 0.00 | 86 | 1016.0 |
| 20260507000640 | 7 | 0.0 | 1.6 | 0.00 | 0.00 | 0.00 | 86 | 1016.0 | |
| 20260506235620 | 7 | 90 | 1.6 | 4.8 | 0.00 | 0.00 | 0.00 | 85 | 1016.0 |
| 20260506234640 | 7 | 90 | 4.8 | 8.0 | 0.00 | 0.00 | 0.00 | 85 | 1016.0 |
| 20260506233620 | 7 | 90 | 3.2 | 6.4 | 0.00 | 0.00 | 0.00 | 85 | 1015.9 |
| 20260506232620 | 8 | 113 | 4.8 | 8.0 | 0.00 | 0.00 | 0.00 | 84 | 1015.9 |
| 20260506231620 | 8 | 113 | 3.2 | 6.4 | 0.00 | 0.00 | 0.00 | 84 | 1015.9 |
| 20260506230621 | 8 | 90 | 3.2 | 8.0 | 0.00 | 0.00 | 0.00 | 84 | 1015.8 |
| 20260506225618 | 8 | 113 | 4.8 | 8.0 | 0.00 | 0.00 | 0.00 | 83 | 1015.7 |
| 20260506224618 | 8 | 90 | 4.8 | 6.4 | 0.00 | 0.00 | 0.00 | 82 | 1015.7 |
| 20260506223618 | 8 | 113 | 3.2 | 4.8 | 0.00 | 0.00 | 0.00 | 81 | 1015.7 |
| 20260506222618 | 8 | 113 | 3.2 | 6.4 | 0.00 | 0.00 | 0.00 | 81 | 1015.6 |
| 20260506221638 | 8 | 90 | 1.6 | 3.2 | 0.00 | 0.00 | 0.00 | 80 | 1015.6 |
| 20260506220638 | 8 | 113 | 3.2 | 4.8 | 0.00 | 0.00 | 0.00 | 79 | 1015.6 |
| 20260506215640 | 8 | 113 | 3.2 | 4.8 | 0.00 | 0.00 | 0.00 | 78 | 1015.6 |
| 20260506214620 | 9 | 135 | 4.8 | 6.4 | 0.00 | 0.00 | 0.00 | 78 | 1015.6 |
| 20260506213620 | 9 | 90 | 3.2 | 6.4 | 0.00 | 0.00 | 0.00 | 78 | 1015.4 |
| 20260506212620 | 9 | 135 | 1.6 | 3.2 | 0.00 | 0.00 | 0.00 | 77 | 1015.4 |
| 20260506211619 | 9 | 90 | 3.2 | 4.8 | 0.00 | 0.00 | 0.00 | 76 | 1015.3 |
| 20260506210619 | 9 | 0.0 | 3.2 | 0.00 | 0.00 | 0.00 | 76 | 1015.2 | |
| 20260506205619 | 9 | 90 | 3.2 | 8.0 | 0.00 | 0.00 | 0.00 | 74 | 1015.2 |
| 20260506204619 | 9 | 90 | 4.8 | 8.0 | 0.00 | 0.00 | 0.00 | 73 | 1015.2 |
| 20260506203619 | 10 | 90 | 3.2 | 6.4 | 0.00 | 0.00 | 0.00 | 72 | 1015.2 |
| 20260506202619 | 10 | 68 | 3.2 | 4.8 | 0.00 | 0.00 | 0.00 | 70 | 1015.0 |
| 20260506201619 | 10 | 90 | 3.2 | 6.4 | 0.00 | 0.00 | 0.00 | 69 | 1014.9 |
| 20260506200639 | 10 | 113 | 3.2 | 8.0 | 0.00 | 0.00 | 0.00 | 67 | 1014.9 |
| 20260506195619 | 11 | 90 | 1.6 | 4.8 | 0.00 | 0.00 | 0.00 | 66 | 1014.9 |
| 20260506194639 | 11 | 23 | 3.2 | 6.4 | 0.00 | 0.00 | 0.00 | 66 | 1014.7 |
| 20260506193619 | 11 | 0.0 | 0.0 | 0.00 | 0.00 | 0.00 | 64 | 1014.6 | |
| 20260506192639 | 11 | 90 | 3.2 | 4.8 | 0.00 | 0.00 | 0.00 | 62 | 1014.7 |
| 20260506191619 | 11 | 90 | 1.6 | 4.8 | 0.00 | 0.00 | 0.00 | 62 | 1014.6 |
| 20260506190619 | 12 | 90 | 3.2 | 6.4 | 0.00 | 0.00 | 0.00 | 61 | 1014.5 |
| 20260506185619 | 12 | 90 | 3.2 | 6.4 | 0.00 | 0.00 | 0.00 | 59 | 1014.7 |
| 20260506184619 | 12 | 45 | 3.2 | 6.4 | 0.00 | 0.00 | 0.00 | 59 | 1014.6 |
| 20260506183619 | 13 | 113 | 1.6 | 4.8 | 0.00 | 0.00 | 0.00 | 58 | 1014.7 |
| 20260506182619 | 13 | 90 | 1.6 | 3.2 | 0.00 | 0.00 | 0.00 | 55 | 1014.6 |
| 20260506181619 | 14 | 90 | 1.6 | 4.8 | 0.00 | 0.00 | 0.00 | 54 | 1014.6 |
| 20260506180619 | 14 | 45 | 1.6 | 4.8 | 0.00 | 0.00 | 0.00 | 55 | 1014.5 |
| 20260506175619 | 14 | 45 | 4.8 | 9.7 | 0.00 | 0.00 | 0.00 | 53 | 1014.5 |
| 20260506174619 | 14 | 45 | 4.8 | 9.7 | 0.00 | 0.00 | 0.00 | 53 | 1014.5 |
| 20260506173618 | 14 | 45 | 4.8 | 8.0 | 0.00 | 0.00 | 0.00 | 55 | 1014.4 |
| 20260506172619 | 13 | 68 | 1.6 | 4.8 | 0.00 | 0.00 | 0.00 | 55 | 1014.4 |